Solomon, AZ

3:39 AM MST on February 27, 2017 (GMT -0700)
Safford Regional

Weather History for KSAD - February, 2013

Change the Weather History Date:

Wednesday, February 27, 2013

  Actual Average Record
Temperature  
Mean Temperature 42 °F -  
Max Temperature 57 °F 68 °F 84 °F (1986)
Min Temperature 28 °F 34 °F 19 °F (1964)
Degree Days  
Heating Degree Days 22    
Moisture  
Dew Point -1 °F    
Average Humidity 17    
Maximum Humidity 31    
Minimum Humidity 7    
Precipitation  
Precipitation 0.00 in - - ()
Sea Level Pressure  
Sea Level Pressure 30.14 in    
Wind  
Wind Speed 6 mph (NW)    
Max Wind Speed 10 mph    
Max Gust Speed 16 mph    
Visibility 10 miles    
Events      
Averages and records for this station are not official NWS values.
T = Trace of Precipitation, MM = Missing Value Source: NWS Daily Summary

Daily Weather History Graph

Daily Weather History Graph

Search for Another Location

Airport or City:

Trip Planner

Search our weather history database for the weather conditions in past years. The results will help you decide how hot, cold, wet, or windy it might be!

Date:

Astronomy

Feb. 27, 2013 Rise Set
Actual Time 6:48 AM MST 6:14 PM MST
Civil Twilight 6:23 AM MST 6:39 PM MST
Nautical Twilight 5:54 AM MST 7:07 PM MST
Astronomical Twilight 5:26 AM MST 7:36 PM MST
Moon 8:28 PM MST 7:34 AM MST
Length of Visible Light 12h 15m
Length of Day
11h 26m
Waning Gibbous, 96% of the Moon is Illuminated
Feb 27
Waning Gibbous
Mar 4
Last Quarter
Mar 11
New
Mar 19
First Quarter
Mar 27
Full

Hourly Weather History & Observations

Time (MST) Temp. Windchill Dew Point Humidity Pressure Visibility Wind Dir Wind Speed Gust Speed Precip Events Conditions
12:51 AM 39.0 °F 32.8 °F 3.0 °F 22% 30.05 in 10.0 mi NW 9.2 mph - N/A   Clear
1:51 AM 37.9 °F 33.5 °F 1.9 °F 22% 30.07 in 10.0 mi WNW 5.8 mph - N/A   Clear
2:51 AM 34.0 °F 31.0 °F 1.9 °F 26% 30.08 in 10.0 mi ENE 3.5 mph - N/A   Clear
3:51 AM 33.1 °F 30.0 °F 1.0 °F 26% 30.09 in 10.0 mi South 3.5 mph - N/A   Clear
4:51 AM 30.9 °F 27.5 °F 1.0 °F 28% 30.13 in 10.0 mi WNW 3.5 mph - N/A   Clear
5:51 AM 28.0 °F - 1.0 °F 31% 30.15 in 10.0 mi Calm Calm - N/A   Clear
6:51 AM 28.9 °F 22.8 °F 1.0 °F 30% 30.17 in 10.0 mi North 5.8 mph - N/A   Clear
7:51 AM 35.1 °F - 3.0 °F 26% 30.21 in 10.0 mi Calm Calm - N/A   Clear
8:51 AM 43.0 °F - 1.9 °F 18% 30.22 in 10.0 mi Calm Calm - N/A   Clear
9:51 AM 48.0 °F - -0.0 °F 14% 30.23 in 10.0 mi East 9.2 mph - N/A   Clear
10:51 AM 51.1 °F - -4.0 °F 10% 30.21 in 10.0 mi Variable 6.9 mph - N/A   Clear
11:51 AM 54.0 °F - -2.9 °F 10% 30.18 in 10.0 mi SSE 10.4 mph 16.1 mph N/A   Clear
12:51 PM 55.0 °F - -6.0 °F 8% 30.15 in 10.0 mi Variable 6.9 mph - N/A   Clear
1:51 PM 57.0 °F - -6.0 °F 8% 30.12 in 10.0 mi SE 8.1 mph - N/A   Clear
2:51 PM 57.9 °F - -6.0 °F 7% 30.10 in 10.0 mi SE 5.8 mph - N/A   Clear
3:51 PM 57.9 °F - -7.1 °F 7% 30.09 in 10.0 mi SE 5.8 mph - N/A   Clear
4:51 PM 57.9 °F - -6.0 °F 7% 30.09 in 10.0 mi West 5.8 mph - N/A   Clear
5:51 PM 55.9 °F - -5.1 °F 8% 30.10 in 10.0 mi West 5.8 mph - N/A   Clear
6:51 PM 50.0 °F - -2.9 °F 11% 30.12 in 10.0 mi WNW 5.8 mph - N/A   Clear
7:51 PM 45.0 °F 40.6 °F -2.0 °F 14% 30.14 in 10.0 mi North 8.1 mph - N/A   Clear
8:51 PM 45.0 °F 41.2 °F -0.9 °F 15% 30.14 in 10.0 mi NNW 6.9 mph - N/A   Clear
9:51 PM 42.1 °F 37.1 °F -0.9 °F 17% 30.16 in 10.0 mi North 8.1 mph - N/A   Clear
10:51 PM 41.0 °F 39.0 °F -0.0 °F 18% 30.17 in 10.0 mi West 3.5 mph - N/A   Clear
11:51 PM 39.0 °F 34.0 °F 3.9 °F 23% 30.17 in 10.0 mi NNW 6.9 mph - N/A   Clear